Home > Weather > Yaren > Past weeks

Flag for Nauru Past Weather in Yaren, Nauru — Yesterday and Last 2 Weeks

Now
88 °F

Broken clouds.


Feels Like: 100 °F
Forecast: 83 / 86 °F
Wind: 8 mph from Southeast

Location: Betio Village

Current Time: Aug 28, 2016 at 10:28:22 AM

Latest Report: Aug 28, 2016 at 10:00 AM


Visibility: N/A

Pressure: 29.92 "Hg

Humidity: 70%

Dew Point: 77 °F

Location of YarenLocation

Past Weather in Yaren — Graph

°F

Yaren Temperature Yesterday

Maximum temperature yesterday: 90 °F (at 12:00 PM)
Minimum temperature yesterday: 79 °F (at 3:00 AM)
Average temperature yesterday: 84 °F

High & Low Weather Summary for the Past Weeks

 TemperatureHumidityPressure
High90 °F (Aug 16, 3:00 PM)100% (Aug 20, 7:00 AM)29.95 "Hg (Aug 20, 7:00 AM)
Low75 °F (Aug 14, 6:00 AM)62% (Aug 13, 11:00 AM)29.68 "Hg (Aug 15, 4:00 PM)
Average84 °F77%29.79 "Hg
* Reported Aug 13 9:00 AM — Aug 28 9:00 AM, Yaren, Weather by CustomWeather, © 2016

Note: Actual official high and low records may vary slightly from our data, if they occured in-between our weather recording intervals... More about our weather records

Advertising

Yaren Weather History for the Previous 24 Hours

Scroll right to see more
 ConditionsComfort  
Time TempWeatherWind HumidityBarometerVisibility
9:00 AM
Sun, Aug 28
88 °FBroken clouds.7 mph75%29.92 "HgN/A
8:00 AM86 °FPartly sunny.6 mph75%29.89 "HgN/A
7:00 AM82 °FBroken clouds.5 mph79%29.89 "HgN/A
6:00 AM82 °FPartly cloudy.5 mph79%29.86 "HgN/A
5:00 AM82 °FPartly cloudy.10 mph79%29.83 "HgN/A
4:00 AM82 °FPartly cloudy.12 mph84%29.83 "HgN/A
3:00 AM82 °FPassing clouds.6 mph84%29.83 "HgN/A
2:00 AM82 °FPassing clouds.10 mph79%29.86 "HgN/A
1:00 AM82 °FPassing clouds.7 mph79%29.86 "HgN/A
12:00 AM82 °FPassing clouds.7 mph79%29.89 "HgN/A
11:00 PM
Sat, Aug 27
82 °FPassing clouds.9 mph79%29.92 "HgN/A
10:00 PM82 °FPassing clouds.8 mph79%29.92 "HgN/A
9:00 PM82 °FPassing clouds.9 mph79%29.89 "HgN/A
8:00 PM82 °FPassing clouds.12 mph79%29.89 "HgN/A
7:00 PM84 °FPassing clouds.5 mph74%29.89 "HgN/A
6:00 PM86 °FScattered clouds.7 mph70%29.86 "HgN/A
5:00 PM88 °FPassing clouds.6 mph70%29.83 "HgN/A
4:00 PM90 °FPassing clouds.7 mph67%29.83 "HgN/A
3:00 PM88 °FPassing clouds.9 mph66%29.83 "HgN/A
2:00 PM90 °FPassing clouds.10 mph71%29.86 "HgN/A
1:00 PM90 °FPassing clouds.9 mph63%29.86 "HgN/A
12:00 PM90 °FPassing clouds.8 mph67%29.89 "HgN/A
11:00 AM88 °FPassing clouds.9 mph66%29.92 "HgN/A
10:00 AM88 °FPassing clouds.10 mph66%29.95 "HgN/A
Weather by CustomWeather, © 2016

See weather overviewHow to use our weather pages